NOAA 16 DEB, 41377

Orbit data source: Space-Track

NOAA 16 DEB, 41377 is space debris in SSO originally from a launch on Thu, 21 Sep 2000 UTC launched from the Air Force Western Test Range (AFWTR). Debris objects in space refer to the collection of defunct objects orbiting the Earth. Examples of debris include non-operational satellites, rocket bodies, and fragments generated from explosions, collisions, or faulty payload assembly.

Loading next visibility...
Identifier
41377, 2000-055JW
Orbit
SSO
Country
Flag of USUS
Related business
Manufacturer
Unknown
Mission
Spacecraft
Bus & Motor
Unknown
Mass
Unknown
Launch date (UTC)
2000-09-21 (25 years ago)
Launch vehicle
Unknown
Launch site
Air Force Western Test Range (AFWTR)
Object type
Payload
Rocket body
Debris
Shape & HBR
Unknown shape, 0.1 m
Radar Cross Section
Small (<0.1 m²)

Expand to show TLE details & history
Last TLE update: 14 hours ago

TLE from 14 hours ago
0 NOAA 16 DEB
1 41377U 00055JW  25342.51964299  .00007480  00000-0  28929-2 0  9994
2 41377  98.8242  86.6152 0022171 194.3984 165.6568 14.30242171512343
Epoch: 2025-12-08T12:28Z
TLE epoch observation values (Epoch: 2025-12-08T12:28:17.154Z)
Latitude
-0.00007°
Longitude
-177.97377°
Altitude
809.251 km
Speed
7.441 km/s
True Right ascension
05h 46m 27s
True Declination
0° 00' 00"
Sunlit
Object was in full shadow at epoch
Visualization orbit readout
Latitude
Unknown
Longitude
Unknown
Altitude
Unknown
Speed
Unknown
Apparent Right ascension
Unknown
Apparent Declination
Unknown
Sunlit
N/A
Visualization observer readout
Local Sidereal Time
00:22:42
Azimuth
Unknown
Elevation
Unknown
Doppler factor
Unknown
Orbital elements
Apogee altitude
803.96 km
Perigee altitude
772.184 km
Semi-major axis
7,166.209 km
Eccentricity
0.00222
Inclination
98.8242°
RAAN
86.6152°
Arg. of periapsis
194.3984°
True anomaly
165.71957°
Mean anomaly
165.6568°
Eccentric anomaly
165.6882°
Mean motion
3.57774 °/min
Orbital period
100.62 mins
BSTAR
0.0028929
Loading maneuver chart data...
Computing Atmospheric mass density...
Loading historical data...
Loading historical data...
Loading historical data...
Loading historical data...
Loading historical data...
Loading historical data...
Loading historical data...

Documentation

Showing up to 5 results
|